FW7322 Weather Reports


Display with metric or nautical units.
time (UTC)temp
F
wind
direction
speed
MPH
gust
MPH
rain 1hr
in
rain 24hr
in
rain mn
in
humidity
%
barometer
mb
20260504050539 46 79 0.0 3.0 0.00 0.00 0.00 64 1037.4
20260504045541 47 85 0.0 2.0 0.00 0.00 0.00 64 1037.6
20260504045040 47 91 0.0 2.0 0.00 0.00 0.00 63 1037.6
20260504044536 47 85 0.0 3.0 0.00 0.00 0.00 63 1037.6
20260504044036 47 81 1.0 3.0 0.00 0.00 0.00 63 1037.4
20260504043536 47 91 0.0 3.0 0.00 0.00 0.00 63 1037.4
20260504043034 47 89 0.0 2.0 0.00 0.00 0.00 62 1037.5
20260504042532 47 97 0.0 2.0 0.00 0.00 0.00 62 1037.5
20260504042033 48 82 0.0 3.0 0.00 0.00 0.00 61 1037.4
20260504041532 48 76 1.0 3.0 0.00 0.00 0.00 61 1037.4
20260504041032 47 86 0.0 0.0 0.00 0.00 0.00 61 1037.3
20260504040531 48 85 0.0 0.0 0.00 0.00 0.00 62 1037.3
20260504040030 48 85 0.0 0.0 0.00 0.00 0.00 60 1037.3
20260504035530 47 86 0.0 0.0 0.00 0.00 0.00 61 1037.3
20260504035030 48 86 0.0 0.0 0.00 0.00 0.00 60 1037.2
20260504034529 48 86 0.0 0.0 0.00 0.00 0.00 60 1037.1
20260504034033 48 85 0.0 0.0 0.00 0.00 0.00 59 1037.0
20260504033530 49 84 0.0 2.0 0.00 0.00 0.00 59 1037.1
20260504033032 49 82 0.0 3.0 0.00 0.00 0.00 59 1037.0
20260504032528 49 82 0.0 3.0 0.00 0.00 0.00 58 1037.1
20260504032028 49 82 0.0 0.0 0.00 0.00 0.00 59 1037.1
20260504031530 49 82 0.0 0.0 0.00 0.00 0.00 58 1037.0
20260504031032 49 82 0.0 0.0 0.00 0.00 0.00 58 1037.0
20260504030528 49 82 0.0 0.0 0.00 0.00 0.00 58 1036.9
20260504030028 49 82 0.0 0.0 0.00 0.00 0.00 58 1037.0
20260504025528 49 79 0.0 4.0 0.00 0.00 0.00 58 1037.1
20260504025028 49 79 0.0 4.0 0.00 0.00 0.00 57 1037.0
20260504024528 49 104 0.0 3.0 0.00 0.00 0.00 58 1037.0
20260504024029 49 91 0.0 0.0 0.00 0.00 0.00 58 1036.9
20260504023528 49 91 0.0 1.0 0.00 0.00 0.00 58 1036.9
20260504023028 50 89 0.0 2.0 0.00 0.00 0.00 58 1037.0
20260504022528 50 86 0.0 2.0 0.00 0.00 0.00 57 1037.0
20260504022027 50 87 0.0 2.0 0.00 0.00 0.00 57 1037.1
20260504021529 50 86 0.0 3.0 0.00 0.00 0.00 56 1037.1
20260504021027 51 79 0.0 4.0 0.00 0.00 0.00 55 1037.0
20260504020527 51 101 0.0 4.0 0.00 0.00 0.00 55 1037.0
20260504020029 51 90 0.0 3.0 0.00 0.00 0.00 54 1037.0
20260504015526 51 86 1.0 3.0 0.00 0.00 0.00 54 1037.0
20260504015031 51 89 0.0 3.0 0.00 0.00 0.00 55 1037.0
20260504014540 51 88 1.0 3.0 0.00 0.00 0.00 54 1036.9
20260504014027 51 86 0.0 3.0 0.00 0.00 0.00 54 1036.9
20260504013526 51 91 1.0 3.0 0.00 0.00 0.00 53 1036.9
20260504013026 51 84 0.0 2.0 0.00 0.00 0.00 54 1036.8
20260504012527 51 75 0.0 0.0 0.00 0.00 0.00 54 1036.8
20260504012024 51 81 0.0 0.0 0.00 0.00 0.00 54 1036.8
20260504011525 51 89 0.0 0.0 0.00 0.00 0.00 54 1036.8
20260504011024 52 91 0.0 2.0 0.00 0.00 0.00 53 1036.6
20260504010527 52 95 0.0 2.0 0.00 0.00 0.00 53 1036.5
20260504010025 52 86 0.0 2.0 0.00 0.00 0.00 52 1036.5
20260504005524 52 82 0.0 3.0 0.00 0.00 0.00 51 1036.5
20260504005026 52 84 0.0 3.0 0.00 0.00 0.00 51 1036.5
20260504004524 52 82 0.0 2.0 0.00 0.00 0.00 50 1036.5
20260504004026 53 83 0.0 1.0 0.00 0.00 0.00 51 1036.5
20260504003524 53 82 0.0 1.0 0.00 0.00 0.00 49 1036.4
20260504003024 54 80 0.0 2.0 0.00 0.00 0.00 48 1036.3
20260504002523 54 80 0.0 3.0 0.00 0.00 0.00 47 1036.3
20260504002023 54 93 0.0 4.0 0.00 0.00 0.00 46 1036.2
20260504001525 54 89 1.0 4.0 0.00 0.00 0.00 46 1036.2
20260504001023 55 90 0.0 3.0 0.00 0.00 0.00 47 1036.2
20260504000522 55 98 0.0 6.0 0.00 0.00 0.00 46 1036.2
20260504000037 56 96 1.0 6.0 0.00 0.00 0.00 44 1036.1
20260503235522 56 89 1.0 7.0 0.00 0.00 0.00 44 1036.1
20260503235024 57 82 2.0 7.0 0.00 0.00 0.00 42 1036.0
20260503234523 57 73 0.0 6.0 0.00 0.00 0.00 43 1036.0
20260503234023 57 114 1.0 11.0 0.00 0.00 0.00 43 1035.9
20260503233522 58 83 2.0 11.0 0.00 0.00 0.00 40 1035.8
20260503233024 58 79 1.0 6.0 0.00 0.00 0.00 42 1035.8
20260503232521 58 100 2.0 7.0 0.00 0.00 0.00 42 1035.8
20260503232021 58 100 1.0 9.0 0.00 0.00 0.00 41 1035.8
20260503231521 58 157 2.0 9.0 0.00 0.00 0.00 42 1035.8
20260503231021 58 75 0.0 9.0 0.00 0.00 0.00 44 1035.7
20260503230521 58 68 4.0 9.0 0.00 0.00 0.00 42 1035.7
20260503230021 58 94 2.0 8.0 0.00 0.00 0.00 41 1035.6
20260503225520 58 86 1.0 8.0 0.00 0.00 0.00 41 1035.7
20260503225020 58 91 2.0 7.0 0.00 0.00 0.00 42 1035.7
20260503224520 58 87 2.0 7.0 0.00 0.00 0.00 41 1035.7
20260503224023 58 65 3.0 13.0 0.00 0.00 0.00 40 1035.7
20260503223519 59 117 2.0 13.0 0.00 0.00 0.00 39 1035.6
20260503223019 59 71 3.0 8.0 0.00 0.00 0.00 39 1035.7
20260503222519 59 86 1.0 14.0 0.00 0.00 0.00 40 1035.8
20260503222019 59 94 3.0 16.0 0.00 0.00 0.00 39 1035.6
20260503221519 59 75 7.0 16.0 0.00 0.00 0.00 36 1035.5
20260503221021 59 110 3.0 9.0 0.00 0.00 0.00 39 1035.6
20260503220518 59 91 2.0 9.0 0.00 0.00 0.00 38 1035.7
20260503220021 58 108 3.0 15.0 0.00 0.00 0.00 39 1035.7
20260503215519 59 67 3.0 15.0 0.00 0.00 0.00 40 1035.9
20260503215018 59 140 2.0 10.0 0.00 0.00 0.00 38 1035.9
20260503214526 59 94 2.0 11.0 0.00 0.00 0.00 40 1035.7
20260503214017 60 64 4.0 16.0 0.00 0.00 0.00 37 1035.7
20260503213517 61 85 0.0 16.0 0.00 0.00 0.00 38 1035.5
20260503213018 60 91 4.0 13.0 0.00 0.00 0.00 36 1035.6
20260503212521 60 79 2.0 10.0 0.00 0.00 0.00 39 1035.5
20260503212016 60 106 2.0 10.0 0.00 0.00 0.00 40 1035.4
20260503211516 60 70 4.0 12.0 0.00 0.00 0.00 39 1035.4
20260503211017 60 82 4.0 12.0 0.00 0.00 0.00 38 1035.4
20260503210516 60 72 3.0 9.0 0.00 0.00 0.00 38 1035.6
20260503210036 61 82 2.0 9.0 0.00 0.00 0.00 41 1035.4
20260503205519 61 82 1.0 12.0 0.00 0.00 0.00 40 1035.6
20260503205015 60 82 2.0 12.0 0.00 0.00 0.00 40 1035.5
20260503204516 60 68 2.0 12.0 0.00 0.00 0.00 38 1035.5
20260503204018 60 103 4.0 12.0 0.00 0.00 0.00 38 1035.4
20260503203514 61 81 3.0 12.0 0.00 0.00 0.00 43 1035.5
20260503203018 60 78 3.0 10.0 0.00 0.00 0.00 40 1035.4
20260503202513 59 84 4.0 10.0 0.00 0.00 0.00 37 1035.7
20260503202013 60 68 3.0 16.0 0.00 0.00 0.00 40 1035.4
20260503201513 60 64 4.0 16.0 0.00 0.00 0.00 41 1035.3
20260503201011 59 103 2.0 8.0 0.00 0.00 0.00 38 1035.5
20260503200510 59 248 1.0 11.0 0.00 0.00 0.00 43 1035.7
20260503200015 59 110 4.0 11.0 0.00 0.00 0.00 41 1035.8
20260503195508 59 105 2.0 9.0 0.00 0.00 0.00 40 1035.9
20260503195008 59 81 4.0 13.0 0.00 0.00 0.00 37 1036.0
20260503194507 58 68 3.0 13.0 0.00 0.00 0.00 38 1036.1
20260503194007 58 85 5.0 11.0 0.00 0.00 0.00 39 1036.2
20260503193507 59 100 2.0 11.0 0.00 0.00 0.00 39 1036.4
20260503193006 59 82 2.0 16.0 0.00 0.00 0.00 39 1036.3
20260503192505 58 79 2.0 16.0 0.00 0.00 0.00 41 1036.5
20260503192005 58 108 4.0 12.0 0.00 0.00 0.00 40 1036.5
20260503191505 58 78 2.0 6.0 0.00 0.00 0.00 42 1036.6
20260503191004 58 136 0.0 7.0 0.00 0.00 0.00 40 1036.6
20260503190506 59 96 2.0 9.0 0.00 0.00 0.00 38 1036.7
20260503190004 59 108 4.0 13.0 0.00 0.00 0.00 38 1036.7
20260503185503 59 94 4.0 13.0 0.00 0.00 0.00 39 1036.8
20260503185004 59 82 4.0 12.0 0.00 0.00 0.00 36 1036.8
20260503184502 59 101 0.0 11.0 0.00 0.00 0.00 42 1036.7
20260503184001 59 74 3.0 11.0 0.00 0.00 0.00 39 1036.8
20260503183501 58 95 1.0 8.0 0.00 0.00 0.00 41 1036.9
20260503183108 59 89 2.0 7.0 0.00 0.00 0.00 40 1037.0
20260503182558 58 103 2.0 13.0 0.00 0.00 0.00 47 1037.1
20260503182058 58 71 6.0 13.0 0.00 0.00 0.00 36 1037.1
20260503181558 58 81 2.0 13.0 0.00 0.00 0.00 38 1037.1
20260503181056 58 115 1.0 11.0 0.00 0.00 0.00 44 1037.1
20260503180555 56 91 5.0 11.0 0.00 0.00 0.00 41 1037.1
20260503180106 56 198 2.0 11.0 0.00 0.00 0.00 44 1037.3
20260503175555 56 103 1.0 11.0 0.00 0.00 0.00 42 1037.3
20260503175054 56 91 3.0 12.0 0.00 0.00 0.00 42 1037.4
20260503174554 56 117 5.0 12.0 0.00 0.00 0.00 41 1037.6
20260503174055 56 283 3.0 11.0 0.00 0.00 0.00 43 1037.4
20260503173553 57 97 1.0 9.0 0.00 0.00 0.00 41 1037.6
20260503173142 56 73 2.0 10.0 0.00 0.00 0.00 47 1037.6
20260503172550 55 74 4.0 10.0 0.00 0.00 0.00 43 1037.8
20260503172050 55 79 1.0 10.0 0.00 0.00 0.00 45 1037.9
20260503171550 55 94 0.0 9.0 0.00 0.00 0.00 46 1037.8
20260503171048 54 74 1.0 9.0 0.00 0.00 0.00 42 1037.9
20260503170548 54 91 3.0 11.0 0.00 0.00 0.00 46 1038.0
20260503150538 50 31 7.0 13.0 0.00 0.00 0.00 44 1038.9
20260503131030 46 91 1.0 7.0 0.00 0.00 0.00 60 1039.6
20260503130526 46 58 2.0 9.0 0.00 0.00 0.00 63 1039.7
20260503110516 38 89 0.0 0.0 0.00 0.00 0.00 79 1039.0
20260503090500 37 88 0.0 0.0 0.00 0.00 0.00 77 1037.9
20260503090106 37 88 0.0 0.0 0.00 0.00 0.00 77 1037.9
20260503081557 40 83 0.0 2.0 0.00 0.00 0.00 69 1037.7
20260503081049 40 84 0.0 4.0 0.00 0.00 0.00 69 1037.7
20260503080549 41 87 0.0 4.0 0.00 0.00 0.00 68 1037.7
20260503072544 41 94 0.0 6.0 0.00 0.04 0.00 70 1037.3
20260503072044 42 68 0.0 2.0 0.00 0.04 0.00 71 1037.3
20260503071545 42 84 0.0 2.0 0.00 0.04 0.00 71 1037.3
20260503071043 42 59 0.0 2.0 0.00 0.04 0.00 70 1037.2
20260503070542 42 89 0.0 0.0 0.00 0.04 0.00 71 1037.2